Burbank, CA

6:07 AM PDT on July 25, 2017 (GMT -0700)
Burbank-Glendale-Pasadena

Weather History for KBUR - October, 2014

Change the Weather History Date:

Monday, October 20, 2014

  Actual Average Record
Temperature  
Mean Temperature 70 °F 66 °F  
Max Temperature 79 °F 79 °F 98 °F (2003)
Min Temperature 60 °F 53 °F 39 °F (1949)
Degree Days  
Heating Degree Days 0 2  
Month to date heating degree days 0 21  
Since 1 July heating degree days 0 27  
Cooling Degree Days 5 3  
Month to date cooling degree days 157 79  
Year to date cooling degree days 1853 1210  
Growing Degree Days 20 (Base 50)    
Moisture  
Dew Point 58 °F    
Average Humidity 70    
Maximum Humidity 97    
Minimum Humidity 42    
Precipitation  
Precipitation 0.00 in 0.03 in 1.62 in (2004)
Month to date precipitation 0.00 0.57  
Year to date precipitation 4.95 13.44  
Since 1 July precipitation 0.04  
Sea Level Pressure  
Sea Level Pressure 29.88 in    
Wind  
Wind Speed 4 mph (SE)    
Max Wind Speed 12 mph    
Max Gust Speed 14 mph    
Visibility 6 miles    
Events      
T = Trace of Precipitation, MM = Missing Value Source: NWS Daily Summary

Daily Weather History Graph

Daily Weather History Graph

Search for Another Location

Airport or City:

Trip Planner

Search our weather history database for the weather conditions in past years. The results will help you decide how hot, cold, wet, or windy it might be!

Date:

Astronomy

Oct. 20, 2014 Rise Set
Actual Time 7:02 AM PDT 6:13 PM PDT
Civil Twilight 6:37 AM PDT 6:38 PM PDT
Nautical Twilight 6:08 AM PDT 7:07 PM PDT
Astronomical Twilight 5:39 AM PDT 7:36 PM PDT
Moon 4:03 AM PDT (10/20) 4:31 PM PDT (10/20)
Length of Visible Light 12h 00m
Length of Day
11h 10m
Waning Crescent, 9% of the Moon is Illuminated
Oct 20
Waning Crescent
Oct 23
New
Oct 30
First Quarter
Nov 6
Full
Nov 14
Last Quarter

Hourly Weather History & Observations

Time (PDT) Temp. Dew Point Humidity Pressure Visibility Wind Dir Wind Speed Gust Speed Precip Events Conditions
12:27 AM 64.9 °F 60.1 °F 84% 29.89 in 5.0 mi East 3.5 mph - N/A   Haze
12:53 AM 64.0 °F 60.1 °F 87% 29.86 in 5.0 mi Calm Calm - N/A   Overcast
1:53 AM 63.0 °F 59.0 °F 87% 29.87 in 5.0 mi NNW 3.5 mph - N/A   Partly Cloudy
2:53 AM 61.0 °F 57.9 °F 90% 29.86 in 6.0 mi NW 5.8 mph - N/A   Clear
3:53 AM 61.0 °F 55.9 °F 83% 29.86 in 10.0 mi WNW 3.5 mph - N/A   Clear
4:44 AM 61.0 °F 57.0 °F 87% 29.89 in 2.0 mi NNW 4.6 mph - N/A   Overcast
4:51 AM 62.6 °F 57.2 °F 82% 29.89 in 1.5 mi NNW 4.6 mph - N/A   Overcast
4:53 AM 62.1 °F 57.9 °F 86% 29.86 in 2.0 mi NNW 4.6 mph - N/A   Overcast
5:03 AM 61.0 °F 59.0 °F 93% 29.89 in 4.0 mi NNW 3.5 mph - N/A   Overcast
5:23 AM 61.0 °F 59.0 °F 93% 29.89 in 2.0 mi Calm Calm - N/A   Overcast
5:53 AM 61.0 °F 59.0 °F 93% 29.88 in 2.0 mi Calm Calm - N/A   Overcast
6:53 AM 61.0 °F 57.9 °F 90% 29.88 in 2.0 mi Calm Calm - N/A   Overcast
7:53 AM 61.0 °F 59.0 °F 93% 29.89 in 2.0 mi North 3.5 mph - N/A   Overcast
8:53 AM 62.1 °F 57.9 °F 86% 29.92 in 3.0 mi Variable 3.5 mph - N/A   Overcast
9:53 AM 63.0 °F 57.9 °F 84% 29.93 in 4.0 mi South 3.5 mph - N/A   Haze
10:53 AM 66.0 °F 57.9 °F 75% 29.93 in 4.0 mi ESE 3.5 mph - N/A   Haze
11:53 AM 69.1 °F 57.9 °F 68% 29.92 in 8.0 mi Variable 3.5 mph - N/A   Partly Cloudy
12:53 PM 72.0 °F 57.9 °F 61% 29.88 in 8.0 mi SSE 4.6 mph - N/A   Clear
1:53 PM 75.9 °F 55.9 °F 50% 29.86 in 10.0 mi South 6.9 mph - N/A   Clear
2:53 PM 78.1 °F 54.0 °F 43% 29.84 in 10.0 mi South 5.8 mph - N/A   Clear
3:53 PM 77.0 °F 57.9 °F 52% 29.83 in 10.0 mi South 6.9 mph - N/A   Clear
4:53 PM 75.0 °F 57.0 °F 53% 29.82 in 10.0 mi SSE 9.2 mph - N/A   Clear
5:53 PM 71.1 °F 59.0 °F 66% 29.83 in 10.0 mi South 6.9 mph - N/A   Clear
6:53 PM 69.1 °F 59.0 °F 70% 29.85 in 10.0 mi South 5.8 mph - N/A   Clear
7:53 PM 66.9 °F 59.0 °F 76% 29.86 in 10.0 mi SSE 3.5 mph - N/A   Clear
8:53 PM 66.9 °F 59.0 °F 76% 29.87 in 10.0 mi ESE 4.6 mph - N/A   Clear
9:53 PM 66.0 °F 60.1 °F 81% 29.88 in 10.0 mi ESE 5.8 mph - N/A   Clear
10:53 PM 64.9 °F 60.1 °F 84% 29.88 in 10.0 mi East 3.5 mph - N/A   Clear
11:53 PM 64.0 °F 59.0 °F 84% 29.88 in 10.0 mi East 3.5 mph - N/A   Clear